Demo 6
Misión y Visión

La misión es proporcionar información fiable a la navegación aérea, contribuyendo a la seguridad, regularidad y eficiencia de la Navegación Aérea Internacional

La visión es contribuir sustancialmente al desarrollo de conocimientos y a la utilización de la meteorología aeronáutica a nivel nacional e internacional, mediante la innovación y la coparticipación con sectores sociales y productivos de la sociedad.

 
  Inicio
  Metar
  Taf
  Wintemp
  SIGMET
  Avisos
  Pronósticos
  Carpeta Meteorologica
  Imágenes Satelitales
  Climatología Aeronáutica
   
  ¿Quienes Somos?
  Contacto
  Eventos
Taf

 

IMÁGENES DEL AEROPUERTO
(EN CONSTRUCCION)

 

PRONOSTICO DE AERÓDROMO
TAF / PROYECCION CLIMATICA
MES DE JULIO

 

AEROPUERTO ENRIQUE MALEK:

TAF AMD MPDA 160300Z 1600/1612 CNL=


TAF:



 

AEROPUERTO PANAMA PACIFICO:

hola



TAF:



AEROPUERTO MARCOS A. GELABERT:

TAF AMD MPMG 160300Z 1600/1612 CNL=



TAF:



AEROPUERTO INTL. DE TOCUMEN:

TAF MPTO 160510Z 1606/1712 30005KT 9999 FEW018 SCT090 TEMPO 1608/1612 VRB02KT PROB30 TEMPO 1618/1621 18006KT 6000 TSRA SCT016CB BKN090=



TAF:

TAF AMD MPPA 160300Z 1600/1706 CNL=


 
 

Found

The document has moved here.